RH
91 88 81 77 74 72 71 63 60 61 69 74 74 69 61 66 76 85 87 85 78 69 64 53 44 35 21 17 15 15 13 13 15 16 17 19 21 24 26 29 31 32 33 35 36 36 35 32 30 28 28 31 31 30 30 32 36 43 56 73 88 99 100 96 89 84 85 85 86 85 78 75 78 83 87 82 76 68 62 53 46 41 35 38 43 51 57 63 67 71 76 79 81 84 87 88 89 90 89 88 86 84 84
93 90 86 80 79 77 70 66 66 74 90 90 88 84 75 76 87 97 97 86 76 68 60 52 44 35 21 15 13 13 11 12 12 13 14 16 19 22 26 29 31 33 34 35 36 35 33 30 28 26 26 29 29 29 31 35 41 50 62 77 89 96 97 90 86 85 88 89 87 83 79 74 72 73 75 70 63 55 45 39 35 32 29 29 32 35 40 44 49 54 61 64 67 71 75 74 75 76 77 78 75 72 71
89 84 82 83 85 83 71 65 73 87 99 98 96 93 89 84 90 99 100 93 84 71 58 48 40 31 18 12 10 10 9 10 10 10 11 13 16 19 23 26 29 32 33 34 33 32 29 26 23 22 23 26 27 29 33 38 44 52 63 76 86 93 96 93 89 86 87 89 86 80 73 67 66 63 56 48 43 39 33 36 33 30 33 38 42 44 45 42 40 42 49 49 52 56 60 61 63 65 65 67 64 61 61
77 72 72 78 78 76 71 71 80 92 100 100 100 99 99 91 89 93 100 96 85 70 53 44 34 24 13 10 8 8 8 8 8 8 8 10 12 15 18 22 26 28 30 31 30 27 25 22 19 18 21 24 26 29 34 38 44 51 60 71 81 88 91 88 86 84 82 79 75 70 65 61 57 51 43 36 31 29 34 40 37 33 36 45 51 55 58 65 65 62 63 56 51 51 55 56 58 58 53 55 55 54 54
61 61 60 63 64 69 86 90 85 84 98 100 100 100 100 98 89 82 87 89 79 63 50 39 28 18 10 8 7 7 7 7 7 7 7 8 9 12 14 18 21 24 26 26 25 23 20 18 16 17 20 24 26 29 34 38 42 48 54 63 71 78 81 77 75 72 67 64 66 67 62 58 59 57 43 41 37 35 41 41 38 35 34 39 45 54 66 78 81 79 76 74 71 69 72 70 64 58 58 61 58 54 55
53 54 54 54 68 86 99 100 91 82 83 95 99 100 100 100 90 80 79 82 72 57 46 33 22 13 8 7 7 7 7 7 6 6 6 7 8 10 12 14 16 18 20 20 19 17 16 15 15 17 20 23 25 28 33 36 40 44 47 52 59 65 66 64 63 61 55 72 77 74 69 62 58 52 42 40 39 39 42 39 36 33 30 30 32 38 49 58 64 68 74 75 74 72 70 74 72 68 66 64 63 61 59
50 51 51 52 72 93 100 100 93 83 69 90 99 100 100 99 89 79 78 69 62 54 40 26 15 9 7 7 7 7 7 6 6 6 6 7 7 8 10 12 13 14 15 15 13 12 11 13 14 16 18 20 24 27 31 34 37 39 41 43 47 51 51 52 51 54 67 86 86 77 67 62 58 51 36 33 32 31 32 33 32 30 26 24 21 21 25 31 37 43 51 62 64 62 61 69 67 61 58 57 55 55 58
51 52 52 51 61 78 99 100 96 86 70 89 95 94 91 86 79 74 73 62 56 48 30 18 11 8 7 7 7 7 7 7 7 7 7 7 7 7 8 10 11 12 13 12 11 10 10 11 13 15 16 18 22 26 29 31 33 35 36 36 36 37 36 36 39 50 75 86 82 69 57 51 41 31 25 22 19 18 21 24 26 26 24 19 14 12 15 19 22 25 28 38 42 43 45 48 48 46 45 44 44 45 47
51 51 52 51 52 61 80 94 95 85 68 83 83 76 70 70 69 69 68 58 47 35 19 12 8 7 7 7 7 7 7 7 7 7 7 7 7 7 7 8 9 10 11 11 10 9 9 10 11 13 13 16 20 24 26 28 30 31 31 30 29 31 35 38 45 56 70 71 65 57 48 37 28 20 15 12 11 12 13 16 20 22 22 16 11 9 10 13 16 19 20 22 25 29 33 31 28 27 30 30 32 33 35
50 49 47 46 46 48 53 70 75 70 62 72 73 69 68 67 65 62 56 45 33 21 11 8 7 7 7 7 7 7 7 7 7 7 7 7 7 7 7 7 8 8 9 9 9 8 8 9 10 11 11 14 18 22 24 25 27 28 27 26 29 36 48 48 54 60 56 55 50 43 33 25 18 12 9 8 8 9 11 13 17 20 20 16 11 8 7 10 13 16 18 19 20 22 25 22 18 15 16 18 21 23 24
46 43 40 36 35 37 43 52 57 58 58 62 62 62 63 61 57 51 42 30 19 11 8 7 7 7 7 8 8 8 8 7 7 7 7 7 7 7 7 7 7 7 8 8 8 7 7 8 9 9 10 12 16 19 22 23 24 25 25 28 36 44 50 49 49 47 42 37 31 24 19 14 10 8 6 6 7 9 10 12 15 17 16 15 11 7 6 8 10 13 16 19 20 19 19 18 15 12 11 12 14 17 18
39 34 29 26 25 26 32 40 47 52 56 58 56 53 50 48 44 37 26 17 11 8 7 7 7 7 8 8 8 8 8 8 8 7 7 7 7 7 7 7 7 7 7 7 7 7 7 7 8 8 9 11 14 18 20 21 21 21 23 33 49 59 47 41 36 32 27 22 19 17 15 11 8 6 6 6 6 8 10 14 17 18 15 14 11 8 6 7 9 12 15 22 24 22 19 18 14 11 11 10 13 16 16
31 26 22 21 21 23 26 33 40 46 51 52 50 44 39 36 30 22 14 10 8 7 7 7 7 8 8 8 8 8 8 8 8 8 8 7 7 7 7 7 7 7 7 6 6 6 6 6 7 7 8 10 13 17 20 21 20 20 25 37 46 50 45 34 27 21 17 15 16 19 20 16 11 8 6 6 6 7 10 12 15 17 16 14 11 9 8 9 10 13 15 20 24 26 26 23 18 13 12 12 15 18 17
27 22 19 20 22 25 28 33 38 42 44 42 39 34 29 24 18 12 9 8 7 7 7 7 7 8 8 8 8 8 8 8 8 8 8 8 7 7 7 7 6 6 6 6 5 5 5 6 7 7 7 8 11 15 19 22 22 24 30 41 48 50 46 35 27 19 13 11 14 18 19 18 14 11 8 7 6 7 8 10 12 14 14 13 12 10 9 10 11 13 15 18 21 25 29 27 23 18 16 14 15 17 17
29 23 20 21 22 24 26 29 30 31 31 28 26 23 19 14 11 9 8 7 7 7 7 7 7 8 8 8 8 8 8 8 8 8 8 8 7 7 7 7 7 7 6 6 6 5 5 6 6 7 7 7 9 12 17 22 26 30 35 43 50 53 49 39 30 22 13 10 10 10 10 12 12 11 10 8 7 7 7 8 9 10 11 12 12 12 10 11 12 13 15 17 20 23 27 30 28 23 19 17 16 16 16
36 28 22 21 20 20 20 20 20 19 19 18 16 14 12 10 9 8 8 8 8 8 8 8 8 8 8 8 8 8 9 9 9 9 8 8 8 7 7 7 7 7 7 6 6 6 6 6 6 6 7 7 8 10 14 19 24 30 37 43 51 55 51 40 32 24 15 10 8 7 7 7 8 9 10 9 8 7 8 8 9 10 10 11 13 14 12 13 14 14 15 17 19 21 25 29 30 28 22 19 17 16 16
44 36 29 25 22 19 18 17 15 14 13 13 11 10 9 8 8 8 8 8 8 9 9 9 9 9 8 8 8 9 9 9 9 9 9 8 8 8 8 8 8 7 7 7 7 6 6 7 7 6 7 7 8 9 10 13 17 23 32 40 48 52 47 39 31 23 16 11 9 8 7 7 7 7 9 8 8 8 8 9 10 11 12 12 14 15 14 15 16 16 17 17 18 20 23 25 28 29 26 22 20 18 17
52 46 40 34 28 24 20 17 15 13 12 11 10 10 9 9 9 9 9 9 9 9 9 9 9 8 8 8 9 10 10 10 10 9 9 9 9 9 9 9 9 8 8 8 8 7 7 8 8 7 7 8 8 8 9 10 12 15 22 32 38 41 41 36 29 21 15 11 10 8 8 8 8 9 9 9 9 9 10 11 13 14 15 15 16 16 16 17 18 18 19 19 20 21 22 24 26 28 28 26 25 23 21
58 54 51 45 39 32 27 22 18 14 12 11 11 11 10 10 10 10 9 9 9 9 9 9 9 9 10 10 11 11 11 11 11 11 11 11 10 10 10 10 10 10 10 10 9 8 7 8 8 8 8 9 9 9 9 10 10 11 13 21 26 30 34 31 25 19 13 12 10 9 8 9 10 10 11 12 12 12 13 14 16 17 18 19 19 19 19 19 20 20 21 22 22 23 23 24 26 27 28 28 28 27 25
61 58 56 53 48 41 35 29 24 19 14 12 12 11 11 11 11 10 10 10 10 9 9 10 11 12 13 13 13 13 13 13 13 13 13 13 13 12 12 12 12 12 11 11 11 10 9 9 9 9 9 10 10 10 10 10 11 11 11 12 15 19 24 24 22 19 13 13 12 11 10 10 11 13 14 16 17 17 18 18 19 20 21 22 23 22 22 22 22 22 23 24 25 26 26 26 27 27 28 28 29 28 27
65 60 57 55 52 48 42 36 32 26 20 16 14 13 13 13 12 12 11 11 10 10 10 12 13 14 15 15 15 15 15 15 16 16 16 16 15 14 14 13 13 13 13 13 12 11 10 10 10 10 10 11 11 11 12 12 12 12 12 12 13 14 16 17 19 19 16 15 14 13 13 14 15 16 17 19 20 21 22 22 23 24 24 25 26 26 26 25 25 25 25 26 27 28 28 29 29 29 29 29 28 28 28
69 64 59 55 52 50 48 44 38 33 28 23 19 16 15 15 14 13 12 11 11 11 13 14 15 16 17 17 17 17 17 18 18 18 18 18 17 17 16 15 15 15 14 14 14 13 12 11 11 11 11 12 12 13 14 14 14 14 15 15 15 15 15 15 17 18 18 17 17 17 17 18 18 19 20 21 23 24 25 25 26 26 26 27 27 27 28 28 28 28 28 28 28 29 29 30 30 30 30 30 30 30 30
72 69 64 58 53 51 51 50 44 37 31 28 25 21 16 15 14 12 11 12 12 13 15 16 16 17 18 18 18 18 18 19 19 20 20 20 19 18 17 17 16 16 16 16 16 15 14 13 13 13 13 14 15 16 16 17 17 17 17 18 18 18 18 18 18 18 19 19 19 20 21 21 22 23 23 24 25 26 26 27 27 28 28 28 28 28 29 29 30 30 30 30 30 30 30 30 31 31 31 32 31 31 31
73 71 68 63 57 53 53 52 47 39 31 28 27 25 20 16 14 13 12 13 14 15 16 17 17 18 18 19 19 20 20 20 21 21 22 21 20 19 19 18 18 18 18 18 17 17 16 15 15 15 16 17 18 18 19 19 19 20 20 20 20 21 21 21 21 21 21 22 22 23 24 24 25 25 26 26 26 27 27 28 28 29 29 29 29 29 30 30 31 31 32 32 32 32 31 31 31 32 32 33 33 33 33
71 68 67 65 62 58 55 53 47 39 30 27 26 26 25 18 15 14 14 15 16 16 17 18 18 19 20 20 21 21 21 22 22 23 23 23 22 21 21 20 20 20 19 19 19 19 19 17 16 16 16 19 20 21 21 22 22 22 23 23 23 23 23 23 23 24 24 24 25 25 26 26 26 27 27 28 28 28 29 29 29 30 30 30 30 31 31 31 31 32 32 33 33 33 33 33 33 33 33 34 34 34 35
71 67 64 62 61 60 58 54 46 37 29 26 25 26 28 20 17 15 15 16 16 17 17 18 19 20 21 22 22 22 23 23 24 25 25 24 23 23 22 22 22 22 21 21 21 21 21 20 18 17 16 19 22 23 24 24 25 25 25 25 26 26 26 26 26 26 26 26 27 27 27 28 28 28 28 29 29 29 30 30 30 30 31 31 31 31 32 32 32 32 33 33 33 34 34 34 34 34 34 34 35 35 35
74 73 69 63 59 57 56 54 46 36 28 24 23 25 28 22 18 16 16 17 17 17 18 19 20 21 22 23 24 24 24 25 25 26 26 26 25 24 24 24 24 24 23 23 23 23 24 23 21 19 18 20 23 25 26 27 27 27 27 28 28 28 28 28 28 28 28 28 28 29 29 29 29 29 29 30 30 30 30 31 31 31 31 32 32 32 32 33 33 33 33 33 34 34 35 35 35 35 35 35 36 36 36
76 78 78 73 66 60 56 54 46 36 29 24 22 23 27 23 19 17 17 17 18 18 19 20 21 23 24 24 25 25 26 26 26 27 27 27 27 26 25 25 25 25 25 25 25 25 25 26 25 24 22 23 24 26 27 28 28 29 29 29 29 29 29 29 29 29 29 30 30 30 30 30 30 30 30 30 31 31 31 31 31 32 32 32 32 33 33 33 33 33 34 34 34 34 35 35 35 36 36 36 37 37 37
74 77 80 78 73 66 59 54 46 37 32 26 24 24 27 26 21 18 17 18 19 19 20 22 23 24 25 25 26 27 27 27 27 27 28 28 28 28 27 26 26 26 26 26 26 26 26 27 27 27 27 26 26 27 27 28 29 29 30 30 30 30 30 30 30 30 30 30 30 30 30 30 30 30 31 31 31 31 32 32 32 32 32 33 33 33 33 34 34 34 34 34 34 35 35 35 36 36 36 37 37 37 38
76 74 77 78 75 67 56 51 45 40 37 31 28 27 30 32 27 20 18 19 20 20 21 23 24 25 26 26 27 28 28 29 28 28 28 29 29 29 29 28 27 27 27 27 27 27 27 27 28 28 29 29 29 29 29 29 29 29 30 30 30 30 30 30 30 30 30 30 30 30 30 30 31 31 31 31 31 32 32 32 33 33 33 33 34 34 34 34 35 35 35 35 35 35 35 35 36 36 36 37 37 37 38
80 76 76 77 74 67 55 48 45 44 43 37 33 31 32 38 33 25 20 21 22 22 23 24 25 26 27 28 28 29 30 30 30 29 29 29 29 30 30 29 29 28 28 28 28 28 28 28 28 29 29 30 30 30 30 30 30 30 30 29 29 29 30 30 30 30 30 30 30 30 30 31 31 31 31 31 32 32 32 33 33 33 33 34 34 34 35 35 35 35 35 36 36 36 36 36 36 36 36 36 37 37 37
81 81 79 79 76 68 57 50 46 45 45 40 36 32 30 36 35 29 22 22 23 25 25 26 27 28 28 29 29 30 30 30 30 30 30 30 29 30 30 30 30 29 29 29 29 29 29 30 30 30 29 30 30 30 31 31 30 30 30 30 30 30 30 30 30 30 30 30 30 30 31 31 31 31 32 32 32 32 33 33 33 33 34 34 34 35 35 35 35 36 36 36 36 36 36 36 36 36 36 36 36 36 36
79 82 82 81 78 72 62 55 51 48 46 42 37 34 31 34 33 29 25 24 24 26 27 28 28 29 30 30 30 30 31 31 31 31 31 30 30 30 30 30 30 30 30 30 29 29 29 30 30 30 30 30 30 30 30 30 30 31 30 30 30 30 30 30 30 30 30 31 31 31 31 31 32 32 32 32 33 33 33 33 34 34 34 34 34 35 35 35 35 36 36 36 36 36 36 36 36 36 36 36 36 36 36
73 77 80 80 79 74 67 61 58 56 51 46 42 38 36 35 33 30 27 25 25 26 28 29 30 30 31 31 31 31 31 31 32 32 32 31 31 31 30 30 30 30 30 30 30 30 30 30 30 30 30 30 30 30 30 30 30 30 30 31 31 31 31 31 31 31 31 31 32 32 32 32 32 32 33 33 33 33 34 34 34 34 35 35 35 35 35 35 35 36 36 36 37 37 37 37 36 36 36 35 35 35 35
67 71 74 76 76 75 71 69 68 66 61 55 50 46 42 41 36 32 27 26 25 26 28 29 30 31 32 32 32 32 32 33 33 33 33 33 32 32 31 31 31 31 31 31 31 31 30 30 30 30 30 30 30 30 30 30 30 30 30 30 31 31 31 31 32 32 32 32 32 33 33 33 33 33 33 33 34 34 34 34 35 35 35 35 35 35 35 36 36 36 36 37 37 37 37 37 36 36 35 35 35 34 33
62 65 68 71 73 74 75 76 76 74 70 65 59 54 50 48 43 36 28 25 24 25 26 28 29 31 32 33 33 34 34 34 34 34 34 34 33 33 32 32 32 31 31 31 31 31 31 31 31 31 30 30 30 30 30 31 30 30 30 31 31 31 31 32 32 32 32 33 33 33 33 34 34 34 34 34 34 34 34 34 35 35 35 36 36 36 36 36 36 36 36 37 37 37 37 36 36 35 35 34 34 33 32
60 62 64 67 69 73 79 81 82 81 78 72 67 62 58 55 51 44 34 26 23 23 24 25 27 30 32 33 34 34 34 34 34 34 34 34 33 33 33 32 32 32 32 32 32 31 31 31 31 31 31 31 31 31 31 31 30 30 31 31 31 31 31 32 32 32 32 33 33 33 34 34 34 34 34 34 34 34 34 35 35 35 35 36 36 36 36 36 36 36 36 36 36 37 36 36 36 35 34 33 32 31 31
58 62 64 64 67 73 81 83 86 87 85 79 73 68 65 64 60 53 43 33 26 22 22 23 24 27 30 32 33 33 33 33 33 33 34 34 34 33 33 33 32 32 32 32 32 32 32 31 31 31 31 31 31 31 31 30 30 30 31 31 31 31 31 32 32 32 33 33 33 34 34 34 34 35 35 35 35 35 35 35 35 35 36 36 36 36 37 37 37 37 36 36 37 37 37 37 37 36 35 34 33 31 30
57 61 64 64 67 73 79 83 87 90 90 84 79 75 72 70 67 62 54 44 34 26 22 21 22 24 26 28 29 31 32 32 32 33 33 33 33 34 34 33 33 32 32 32 32 32 32 32 32 32 31 31 31 31 31 30 30 30 31 31 31 32 32 32 33 33 33 33 34 34 34 35 35 35 35 35 35 35 35 35 35 35 35 36 36 36 36 36 37 37 37 37 37 37 38 39 40 40 41 41 40 38 36
56 61 65 65 68 72 77 84 89 92 91 86 82 79 77 75 73 70 65 56 45 35 26 23 22 22 22 24 26 27 28 29 30 31 31 32 32 33 33 33 33 33 32 33 33 33 33 32 32 32 32 32 32 32 31 31 31 31 31 32 32 32 33 33 33 34 34 34 34 35 35 35 36 36 36 36 36 36 36 36 35 35 35 35 35 35 35 35 35 36 36 37 37 37 38 39 41 44 46 48 49 49 48
55 59 65 66 69 73 77 85 91 93 90 86 84 81 79 77 77 75 71 64 54 44 35 28 25 22 22 22 23 24 26 26 27 27 28 29 29 30 31 31 31 32 32 32 32 33 32 32 32 32 32 32 32 32 31 31 31 31 32 32 32 33 33 33 33 33 34 34 34 35 35 36 36 37 37 38 38 38 37 37 37 36 35 35 35 34 34 34 34 34 34 34 35 35 36 37 39 42 44 47 50 51 53
53 57 64 67 70 73 78 86 91 93 89 87 84 82 79 78 77 75 72 66 58 50 42 35 31 27 25 24 24 25 25 26 26 26 26 26 27 27 27 28 28 29 29 30 30 30 30 30 30 30 30 30 30 30 30 30 30 30 31 31 31 32 32 32 32 33 33 33 34 34 35 36 37 37 38 38 38 38 39 39 38 38 38 37 36 36 35 35 34 34 33 33 32 32 33 33 35 37 39 42 45 48 50
52 56 63 68 70 73 77 85 90 91 89 87 85 83 81 79 76 73 69 64 59 53 47 42 37 34 31 29 29 28 29 29 30 31 30 29 29 28 28 28 28 28 29 29 29 29 29 29 29 29 29 28 29 29 30 32 33 33 33 33 32 32 32 32 32 32 33 33 34 35 35 36 37 37 38 38 38 39 39 39 39 39 39 39 39 39 38 38 37 37 36 34 33 32 31 31 31 31 33 35 38 41 44
53 55 60 67 70 71 75 81 85 88 88 88 87 85 83 80 76 72 68 66 61 56 51 47 43 40 37 36 35 35 36 37 38 39 38 38 36 35 35 35 35 35 36 36 35 35 35 35 35 35 35 36 37 40 42 44 45 45 43 41 39 37 35 34 34 34 34 34 35 35 35 36 37 37 38 39 40 43 45 44 43 42 41 40 40 40 41 42 43 43 42 40 38 36 34 33 31 30 30 30 32 34 37
53 55 59 65 68 71 72 77 81 85 86 88 88 86 83 79 75 73 72 70 67 63 58 54 51 48 45 44 43 43 45 46 47 48 47 47 46 45 44 45 46 47 47 48 49 50 51 50 50 51 52 54 57 59 62 63 63 61 59 55 51 47 44 42 40 38 37 36 36 36 36 37 37 38 38 41 45 50 53 53 52 49 46 43 41 41 42 45 47 49 51 49 47 44 41 39 37 35 34 32 31 31 32
55 56 59 63 67 70 71 74 77 80 83 85 85 82 79 76 76 76 77 76 74 70 66 63 61 59 57 56 55 54 54 56 57 57 56 55 54 53 52 53 55 56 57 58 60 62 64 65 67 68 70 72 73 74 76 76 75 73 71 67 63 58 54 51 48 45 42 40 40 40 40 40 40 41 43 46 51 56 60 60 59 56 51 46 44 43 46 50 53 56 57 57 55 53 49 46 44 42 41 39 37 35 34
57 58 60 62 66 69 71 73 75 76 79 79 78 76 74 75 77 80 82 81 79 77 75 73 72 71 71 70 69 68 66 67 68 67 65 63 62 62 62 61 61 62 63 64 65 67 69 71 73 74 75 76 77 78 79 79 78 78 78 75 71 68 64 61 57 54 52 52 52 52 52 52 51 52 53 56 60 62 64 63 60 56 52 48 48 49 53 58 61 62 62 61 59 56 52 50 48 48 47 46 45 42 39
59 60 61 64 66 68 70 71 73 74 75 74 73 72 72 75 80 84 86 85 83 82 81 81 81 81 81 80 79 78 77 76 77 77 76 73 71 70 70 69 67 66 66 66 66 66 67 68 68 69 70 72 74 76 78 79 80 81 82 80 78 75 72 70 68 68 69 70 71 71 71 70 69 68 68 69 69 68 66 62 58 55 53 52 53 56 60 65 67 67 65 62 58 55 52 51 51 51 52 51 50 48 45
60 61 63 65 68 69 70 70 71 71 72 71 70 71 72 77 83 87 89 88 86 85 85 85 86 86 87 86 85 83 83 83 84 85 84 82 79 76 73 72 71 69 67 68 67 66 65 65 66 67 68 71 74 77 79 81 82 82 82 82 82 81 79 78 78 79 80 82 83 84 84 83 81 80 79 77 74 70 66 62 60 58 58 60 62 65 68 70 70 68 64 59 56 53 53 54 55 56 57 57 55 53 50
62 62 64 66 67 69 70 70 70 70 70 69 70 72 75 80 85 89 91 90 89 88 88 88 88 88 89 88 87 86 86 88 89 90 89 89 89 86 82 78 74 71 71 71 71 71 70 70 70 71 73 76 79 82 84 84 83 82 81 81 82 82 82 81 81 81 82 82 84 85 87 86 85 83 81 78 75 71 68 66 65 65 67 69 72 74 76 74 71 66 61 58 56 55 56 58 60 61 63 62 61 58 54
65 65 65 66 66 67 68 69 70 70 70 70 71 73 76 80 84 88 90 90 90 89 89 89 89 89 90 90 89 89 89 91 93 94 94 94 95 95 95 90 85 80 78 76 76 76 77 78 79 80 82 84 85 87 86 85 83 81 80 80 81 81 81 80 80 80 80 81 83 85 86 86 85 84 81 79 76 74 72 72 72 74 75 77 80 80 79 75 69 64 60 59 58 59 60 62 65 66 67 65 62 59 55
69 69 68 68 67 67 68 69 70 71 71 71 72 73 75 79 83 86 88 89 90 89 90 90 90 90 90 91 91 91 91 93 94 96 97 97 97 97 97 97 96 95 94 88 84 82 83 87 87 87 87 88 88 87 86 85 84 83 82 82 82 82 82 81 81 80 80 81 83 85 87 88 87 86 85 83 81 80 79 79 80 81 82 83 83 81 78 73 68 65 63 62 62 63 64 66 68 68 66 64 61 59 58
74 74 73 72 71 70 70 70 71 71 71 72 72 73 75 78 81 84 86 87 88 88 89 89 90 91 92 93 94 94 94 95 96 97 98 98 98 98 97 99 99 100 99 99 96 92 88 89 90 91 89 87 86 86 86 87 87 87 86 86 85 84 83 83 82 82 82 83 85 86 88 89 89 89 89 89 88 88 87 87 87 87 87 86 85 81 77 72 69 67 66 66 66 67 68 68 68 66 63 61 60 60 61
79 79 78 77 76 75 74 73 72 72 72 72 73 74 76 78 80 82 85 86 87 87 88 89 90 92 93 94 96 97 98 97 97 97 97 98 99 99 99 100 100 100 100 99 97 94 87 91 93 93 86 86 86 87 89 91 91 91 90 88 87 85 84 84 83 84 85 86 87 88 89 89 90 91 91 92 92 92 92 91 90 90 89 88 86 84 80 76 74 72 71 71 71 71 70 68 66 63 61 59 58 59 60
83 83 82 81 80 79 77 76 75 75 75 75 76 77 78 80 82 84 86 87 88 88 89 91 93 94 94 95 96 98 99 97 96 96 96 97 98 99 99 100 100 100 99 97 95 92 91 95 97 95 90 90 90 91 92 93 93 92 90 88 87 86 85 84 84 85 87 89 90 90 90 90 90 90 91 92 93 93 93 93 93 93 92 92 90 89 87 85 83 82 80 78 76 74 71 67 64 61 58 57 56 57 58
86 86 85 84 82 80 79 78 78 78 78 78 79 80 81 83 84 85 87 88 89 90 90 92 93 94 95 96 97 97 98 97 95 95 97 98 99 99 100 100 100 100 99 98 97 97 98 99 100 99 97 96 95 95 93 92 91 90 88 87 87 86 85 85 86 87 89 90 90 90 89 88 87 87 87 88 89 91 93 94 95 95 95 94 94 93 93 92 92 91 89 86 82 77 72 67 63 60 58 57 58 59 62
88 88 87 84 82 80 79 80 80 80 81 81 81 82 84 85 84 84 85 86 88 90 92 93 93 94 94 96 97 97 97 98 98 98 99 99 100 100 100 100 100 100 100 100 100 100 100 100 100 100 99 98 98 97 96 93 91 89 88 88 88 87 86 87 88 90 91 90 88 86 84 82 80 79 78 78 80 83 86 89 91 92 92 93 93 93 94 94 94 94 93 90 87 82 77 73 69 65 62 61 62 65 71
89 88 86 83 81 79 79 79 80 81 82 82 83 84 86 86 84 83 83 85 88 90 92 92 92 92 92 95 96 97 98 98 99 99 100 100 100 100 100 100 100 100 100 100 100 100 100 100 100 100 100 100 99 98 98 96 93 91 91 91 91 90 89 90 90 90 89 86 83 79 75 72 69 67 65 66 69 73 77 80 82 83 84 86 88 90 92 93 94 94 93 92 90 88 85 81 76 71 66 65 68 75 83
89 88 85 82 80 79 78 79 80 81 82 84 85 86 87 87 87 86 87 89 90 90 90 90 91 92 93 95 96 97 98 99 100 100 100 100 100 99 99 99 100 100 100 100 100 100 100 100 100 100 100 100 100 99 98 98 97 96 95 95 95 94 93 92 91 89 85 80 76 71 66 62 59 57 56 60 65 70 73 75 76 77 79 82 84 87 89 91 92 92 92 92 91 91 89 86 81 75 70 69 76 86 90
91 89 86 83 80 78 78 79 81 82 84 87 89 91 92 92 92 92 92 93 93 94 93 93 93 93 96 98 99 99 100 100 100 100 100 100 100 98 97 96 97 98 99 100 100 100 100 100 100 100 100 100 100 100 100 99 99 99 99 98 97 97 94 93 89 85 79 73 68 63 59 55 52 51 54 61 68 73 74 75 76 77 80 82 84 86 87 88 89 89 89 89 89 89 88 87 85 81 77 73 78 85 90
92 91 88 84 81 79 79 81 83 86 88 91 94 95 95 95 95 95 96 96 97 97 97 96 96 96 99 99 100 99 99 100 100 100 100 100 98 96 94 94 94 96 97 98 99 100 100 100 100 100 100 100 100 100 100 100 99 99 100 99 98 97 94 89 84 77 71 66 61 57 53 50 48 50 57 67 74 78 78 78 80 82 84 86 87 87 88 87 87 86 86 85 84 84 84 84 83 81 80 76 76 79 85
Wind_Speed
5 6 6 6 7 6 6 7 9 10 11 11 11 10 9 9 9 8 7 6 5 6 6 5 5 6 8 8 8 8 8 7 6 6 6 6 5 5 6 6 5 4 3 2 1 0 2 2 2 2 4 5 5 5 5 7 7 8 10 12 13 13 11 7 5 4 5 5 6 6 5 5 5 6 7 6 6 6 6 6 6 6 5 4 4 4 4 4 4 5 5 5 6 6 6 6 6 6 6 5 5 5 5
5 5 5 6 6 6 6 7 8 10 10 10 10 10 9 9 9 8 5 4 5 6 6 6 6 7 8 8 8 8 8 7 7 6 6 6 5 5 5 5 5 4 3 2 1 1 2 2 3 3 5 5 5 6 6 7 8 9 10 12 12 11 9 6 4 4 4 5 5 5 5 5 5 5 6 6 6 6 6 6 7 7 7 7 6 5 5 4 4 4 4 4 4 5 5 5 5 5 5 5 5 5 4
5 4 5 5 5 5 5 6 8 9 9 9 8 7 7 7 7 7 3 4 5 6 7 7 7 7 8 8 8 8 8 7 7 7 6 6 5 5 5 5 4 4 3 1 1 1 2 2 3 4 5 5 6 6 7 7 8 9 10 11 10 9 7 6 4 3 4 5 5 5 5 5 6 6 6 5 5 6 7 8 8 8 9 9 9 8 7 7 6 6 6 5 5 5 5 5 5 5 5 5 5 5 4
4 4 5 5 5 5 6 6 8 9 8 5 5 4 3 4 6 6 3 3 4 5 6 7 7 7 7 8 8 8 8 7 7 7 7 6 5 5 4 4 4 3 2 1 1 2 2 3 3 4 5 5 6 6 6 6 7 8 9 9 9 7 6 4 4 3 4 5 5 5 5 6 6 7 7 7 7 7 8 9 9 9 9 9 9 9 10 9 9 9 9 8 8 7 7 6 6 6 6 6 6 5 5
3 3 4 4 5 7 8 7 6 7 7 6 6 7 5 4 4 5 4 2 2 4 6 7 7 7 7 7 8 8 8 8 7 7 7 6 5 5 4 4 3 2 2 0 1 2 3 3 3 4 5 5 5 5 5 5 6 6 7 8 7 6 5 4 3 3 4 5 6 6 6 7 7 7 7 8 8 8 9 8 9 9 9 9 9 9 10 10 10 10 10 10 10 9 9 9 8 8 8 8 7 7 7
2 2 3 5 7 9 9 6 3 4 8 7 6 7 7 6 4 4 4 2 2 4 6 6 6 6 7 7 8 8 8 8 8 7 7 6 5 4 4 3 3 2 1 0 1 3 3 3 3 4 5 5 5 5 5 5 5 5 6 6 6 5 4 3 3 4 5 6 7 7 7 7 7 7 7 8 8 8 8 8 8 8 8 8 9 9 9 9 9 9 9 9 9 9 9 9 9 9 9 9 8 8 8
4 4 4 5 7 9 8 6 5 4 6 6 5 6 7 6 4 4 4 3 3 5 5 5 5 6 7 7 7 8 8 8 8 8 7 6 6 5 4 3 2 2 1 0 1 2 3 3 4 4 5 5 5 5 4 4 4 4 4 4 4 4 3 3 4 5 6 6 6 6 6 6 6 6 7 7 7 8 8 8 8 8 8 9 9 9 9 9 9 8 8 8 8 7 8 8 8 8 8 8 8 8 8
4 4 4 4 6 7 7 6 6 5 5 6 5 4 4 3 2 2 2 3 4 4 4 5 5 6 7 7 7 7 7 8 8 8 7 6 6 5 4 3 2 1 1 0 1 2 3 3 4 4 5 5 5 4 4 4 3 3 3 3 3 2 2 3 4 5 5 5 5 5 5 5 5 6 7 7 8 8 8 8 8 8 8 9 9 9 9 9 9 8 8 8 7 7 7 7 7 7 7 7 7 8 8
5 4 4 3 3 4 6 6 6 5 5 5 5 4 3 1 1 1 2 2 3 3 4 5 6 6 7 7 7 7 7 7 7 7 7 6 6 5 4 3 3 2 1 1 2 2 3 3 4 4 4 4 4 4 4 3 3 3 3 3 3 4 4 4 4 4 4 3 4 4 4 4 5 6 7 7 8 8 8 8 8 8 8 9 9 9 9 9 9 9 9 8 8 7 7 7 7 7 8 8 8 8 8
5 4 4 3 3 3 4 5 5 5 5 5 4 4 3 1 1 1 1 2 3 3 4 5 6 6 6 7 7 7 7 7 7 7 7 6 6 5 4 4 3 3 2 2 2 2 2 3 3 3 4 4 4 4 3 3 3 3 3 4 5 5 5 5 5 4 3 3 3 4 4 4 5 6 7 7 7 7 8 8 8 8 8 8 9 8 9 9 9 9 9 8 8 8 8 8 8 8 9 9 9 9 8
5 5 4 3 3 3 4 4 4 5 5 4 3 3 2 2 2 2 2 3 4 4 5 5 6 6 6 6 6 6 6 6 6 6 6 6 5 5 4 4 3 3 3 3 3 2 2 2 3 3 3 3 4 3 3 3 3 3 4 5 6 5 5 4 4 3 2 3 3 4 4 5 6 6 7 7 7 7 7 7 7 7 8 8 9 9 8 9 9 9 9 9 8 8 9 9 9 9 9 10 10 10 9
5 5 4 4 4 4 4 4 5 5 5 4 3 2 3 3 3 3 4 4 5 5 5 6 6 6 6 6 6 6 5 6 6 6 6 6 5 5 4 4 3 3 3 3 3 2 2 2 2 3 3 3 3 3 3 3 3 3 4 5 6 5 4 3 3 3 3 3 4 4 5 5 5 6 6 7 7 7 7 7 7 8 8 8 8 8 9 9 9 10 10 9 9 9 9 9 9 9 9 10 10 10 10
6 6 5 5 5 5 5 6 6 6 6 5 4 3 4 4 4 5 5 6 6 6 6 6 6 6 6 6 6 5 5 5 5 5 6 5 5 5 4 4 3 3 3 3 3 2 2 2 2 2 3 3 3 3 3 3 3 3 4 5 5 5 4 4 4 4 4 5 5 5 6 6 5 5 6 6 7 7 8 8 8 8 8 8 8 8 9 9 9 10 10 10 10 10 10 10 9 9 9 10 11 11 11
7 6 6 6 6 7 7 7 7 7 7 6 5 5 5 6 6 6 6 6 6 6 6 6 6 6 6 6 5 5 5 5 5 5 5 5 5 4 4 3 3 2 2 3 3 2 2 1 2 2 2 3 3 4 4 4 3 3 4 5 5 5 4 4 4 5 5 5 6 6 6 6 6 6 6 6 7 7 8 9 9 9 9 9 8 8 8 9 9 10 10 11 11 11 11 10 10 10 10 10 11 11 11
7 7 7 7 7 8 8 9 9 8 8 7 7 7 7 7 7 7 7 7 6 6 6 6 5 5 5 5 5 5 4 4 5 5 5 5 5 4 4 3 3 2 2 2 3 3 2 2 2 2 2 3 4 4 5 4 4 4 5 5 5 5 4 4 4 5 5 5 6 6 7 7 7 7 6 6 7 7 8 8 9 9 10 9 9 8 8 9 9 10 10 11 11 12 12 11 11 10 10 10 10 11 11
7 7 8 8 8 9 9 9 9 9 8 8 8 8 8 8 8 8 7 7 6 6 6 5 5 5 5 5 4 4 4 4 5 5 5 5 4 4 4 3 2 2 2 3 3 3 3 2 2 2 2 3 4 4 5 5 5 6 6 6 6 5 4 4 4 5 5 5 6 6 7 7 7 7 7 7 7 7 7 8 8 9 9 9 9 9 9 9 9 10 10 11 11 12 12 12 12 11 10 10 10 10 11
7 7 8 8 8 8 9 9 9 8 8 8 8 8 8 8 8 8 7 7 6 6 6 5 4 4 4 4 4 4 4 5 5 5 5 5 4 4 4 3 2 2 3 3 4 4 4 3 2 2 2 3 4 5 5 5 6 6 7 6 6 4 3 4 4 5 5 5 6 6 6 7 7 7 8 7 7 7 7 8 8 8 9 9 9 9 9 9 10 10 10 11 11 12 12 12 12 12 12 11 11 11 10
6 7 7 8 8 8 8 8 8 8 8 8 8 8 8 8 8 7 7 7 6 6 5 5 4 4 4 4 4 4 4 5 5 5 5 5 4 4 4 3 3 3 3 4 5 5 4 4 3 2 3 4 4 5 5 5 6 6 7 7 6 4 3 3 4 5 6 6 6 6 6 7 7 7 8 8 8 7 7 8 8 8 9 9 9 9 9 9 10 10 10 11 11 12 12 13 13 13 13 13 12 12 11
5 5 6 7 7 7 7 7 7 7 7 7 7 7 7 7 7 7 7 6 6 5 5 5 5 5 5 5 4 4 5 5 5 5 5 5 4 4 4 4 4 4 4 5 5 6 5 4 3 3 3 4 4 5 5 5 5 6 6 6 6 5 4 5 5 6 6 7 7 7 7 7 7 7 8 8 8 8 8 8 8 8 8 9 9 9 9 9 10 10 10 11 11 11 12 12 13 13 13 14 14 13 13
3 4 5 6 6 6 6 6 6 6 6 6 6 6 6 7 7 6 6 6 5 5 5 5 5 5 5 5 5 5 5 5 5 5 5 5 4 4 4 4 4 4 5 5 6 6 6 5 4 4 4 4 4 5 5 6 6 6 6 6 6 7 6 6 7 7 7 7 7 7 7 7 7 7 8 8 8 8 8 8 8 8 8 8 8 9 9 9 9 10 10 11 11 11 12 12 12 13 13 13 14 14 14
2 3 3 4 5 5 5 5 5 4 4 5 5 5 5 5 6 6 6 6 5 5 5 5 4 5 5 5 5 5 5 5 5 5 5 5 5 5 4 4 4 4 5 6 6 6 6 5 4 4 4 4 5 5 5 6 6 6 6 6 6 7 7 7 8 8 8 8 8 8 7 7 7 7 8 8 8 8 8 8 8 8 8 8 9 9 9 9 9 9 10 10 11 11 11 12 12 12 12 13 13 13 13
2 2 2 3 4 4 5 4 4 3 3 4 4 4 4 5 5 6 6 6 5 5 4 4 4 4 5 5 5 5 5 5 5 5 5 5 5 5 5 4 4 5 5 5 6 6 6 5 4 4 5 5 5 5 5 6 6 6 6 7 7 7 7 7 8 8 8 8 8 8 7 7 7 7 8 8 8 8 9 9 9 9 9 9 9 9 9 9 9 9 9 10 10 11 11 12 12 12 12 12 13 13 13
2 2 2 2 3 4 4 4 3 2 3 3 3 3 4 4 5 6 6 6 6 5 4 4 4 4 5 5 5 5 5 5 5 6 5 5 5 5 5 5 4 4 5 5 6 6 6 5 5 5 5 5 5 5 5 6 6 6 6 7 7 7 7 7 7 8 8 8 8 8 7 7 8 8 8 8 8 9 9 9 9 9 9 9 9 9 10 10 10 10 10 10 10 11 11 12 12 12 12 12 13 13 13
2 2 2 2 3 3 4 3 2 2 2 2 3 3 3 4 5 6 7 6 6 5 4 4 4 4 4 4 4 5 5 5 5 5 5 5 5 5 4 4 4 4 4 5 5 6 6 6 5 5 5 5 5 5 6 6 6 6 6 6 6 6 7 7 7 7 7 7 8 8 8 8 8 8 8 8 9 9 9 10 10 10 10 10 10 10 10 11 11 11 10 10 10 11 11 11 12 12 13 13 13 13 13
2 2 2 2 2 3 3 2 1 1 2 2 2 3 3 3 4 5 6 6 5 5 4 4 4 3 3 4 4 4 4 4 5 5 5 5 4 4 4 4 4 4 4 4 5 5 6 6 5 5 5 6 6 6 6 6 6 6 6 6 6 6 6 6 7 7 7 7 8 8 8 8 9 9 9 9 10 10 10 10 11 11 11 11 11 11 11 12 12 12 12 12 12 12 12 12 12 13 13 14 14 14 14
2 1 1 1 1 1 1 1 0 0 1 2 2 2 3 3 3 4 5 5 5 4 4 3 3 3 3 3 3 4 4 4 4 4 4 4 4 4 3 3 3 3 3 4 4 5 5 5 5 5 5 5 5 6 6 6 6 6 6 6 6 6 6 6 7 7 7 8 8 8 9 9 9 9 10 10 10 11 11 11 12 12 12 12 12 12 12 13 13 13 13 13 13 13 13 13 14 14 14 15 15 15 15
2 1 0 1 1 1 1 1 1 1 0 1 1 2 3 3 3 3 4 4 4 4 3 2 2 2 2 3 3 3 3 3 3 3 4 4 4 3 3 3 3 3 3 3 3 4 4 4 5 4 4 5 5 5 5 5 5 5 5 5 6 6 6 6 7 7 7 8 8 9 9 9 10 10 11 11 11 12 12 12 13 13 13 13 13 13 13 14 14 14 14 14 14 14 14 15 15 15 15 16 16 16 16
3 2 1 1 2 2 2 2 2 2 1 0 1 1 2 3 3 3 3 4 4 3 2 1 2 2 2 3 3 3 3 3 3 3 3 3 3 3 3 3 3 2 2 3 3 3 3 3 4 4 3 3 4 4 4 4 4 4 5 5 5 6 6 6 7 7 8 8 9 9 10 10 10 11 11 12 12 12 13 13 13 14 14 14 14 14 14 15 15 15 15 15 15 16 16 16 16 16 16 17 17 17 17
4 3 2 2 3 3 2 1 1 2 1 1 1 1 2 2 2 2 3 3 3 2 1 1 1 2 2 3 3 3 3 3 4 4 3 3 3 3 3 3 3 3 2 2 2 2 2 2 2 2 2 2 2 3 3 3 4 4 4 5 5 6 6 7 7 8 8 9 9 10 10 11 11 12 12 12 13 13 13 14 14 14 15 15 15 15 16 16 16 16 16 17 17 17 17 17 17 17 18 18 18 18 18
4 4 3 3 3 3 2 1 1 1 1 1 1 1 1 1 1 2 2 3 2 2 1 1 1 2 2 2 3 3 3 3 4 4 4 4 3 3 3 3 3 3 3 3 2 2 2 2 1 1 1 1 1 2 3 3 4 4 5 5 6 6 7 7 8 8 9 9 10 10 11 11 12 12 13 13 14 14 14 14 15 15 15 16 16 16 17 17 17 17 18 18 18 18 18 19 19 19 19 19 19 19 19
5 5 4 3 3 3 2 1 2 2 2 2 2 2 1 0 1 1 2 2 2 1 1 1 1 2 2 3 3 3 3 4 4 4 4 4 4 4 4 4 3 3 3 3 3 3 3 3 2 2 1 1 2 2 3 3 4 4 5 6 6 7 8 8 9 9 10 10 11 11 12 12 13 13 14 14 15 15 15 15 16 16 16 16 17 17 18 18 18 19 19 19 19 20 20 20 20 20 20 20 20 20 20
6 6 5 5 4 3 2 2 2 2 2 2 2 2 1 0 0 0 1 1 1 1 0 1 2 2 3 3 3 3 4 4 5 5 5 5 5 5 5 4 4 4 4 4 4 4 4 4 4 4 3 3 3 3 4 4 4 5 6 6 7 8 9 9 10 10 11 11 12 12 13 14 14 15 15 15 16 16 16 16 17 17 17 17 18 18 18 19 19 20 20 20 21 21 21 21 21 22 22 22 22 22 22
8 8 7 6 5 4 3 2 2 2 1 2 2 1 1 0 0 0 0 1 1 1 1 1 2 3 3 4 4 4 5 5 5 5 6 6 6 6 6 6 6 6 6 5 5 5 5 5 5 5 5 5 5 5 5 6 6 6 6 7 8 9 10 10 11 12 12 13 13 14 14 15 15 16 16 16 17 17 17 17 18 18 18 18 18 19 19 20 20 20 21 21 22 22 22 22 23 23 23 23 23 23 23
9 9 8 7 6 5 3 2 2 1 1 1 2 1 1 1 1 1 1 2 2 2 2 2 3 3 4 4 5 5 5 6 6 6 6 7 7 7 7 7 7 7 7 7 7 7 7 7 7 7 7 7 7 7 7 8 8 8 8 8 9 10 10 11 12 13 13 14 15 15 16 16 16 17 17 17 18 18 19 19 19 19 19 19 20 20 20 20 21 21 22 22 23 23 23 24 24 24 24 24 24 24 24
9 9 9 8 7 6 4 3 2 2 2 2 2 1 1 1 1 2 2 2 3 3 3 3 4 4 5 5 5 6 6 6 7 7 7 7 8 8 8 8 8 8 8 8 9 9 9 9 9 9 9 9 9 9 9 10 10 10 10 10 11 11 12 12 13 14 15 15 16 16 17 17 18 18 18 19 19 19 20 20 20 20 21 21 21 21 21 21 22 22 22 23 23 24 24 25 25 25 25 25 25 25 25
9 9 9 9 8 6 5 3 3 4 4 4 3 2 2 2 2 2 3 3 3 4 4 4 5 5 5 5 5 5 6 6 7 7 8 8 8 8 8 9 9 9 9 10 10 10 10 10 10 11 11 11 11 11 11 11 12 12 12 13 13 13 14 14 15 15 16 16 17 18 18 18 19 19 19 20 20 21 21 21 22 22 22 22 22 22 22 22 23 23 23 23 24 24 25 25 26 26 26 26 26 26 26
9 9 9 9 8 7 6 4 4 5 6 5 4 4 3 3 4 4 4 4 4 4 4 5 5 6 6 6 6 6 6 6 7 7 8 8 8 8 9 9 9 9 10 10 11 11 11 11 12 12 12 12 12 13 13 13 13 14 14 14 15 15 16 16 16 17 17 18 18 19 19 20 20 20 21 21 21 22 22 23 23 24 24 24 24 24 24 24 24 24 24 24 25 25 26 26 27 27 27 27 27 27 27
9 9 9 9 9 8 6 6 6 7 8 7 6 5 5 5 5 5 5 5 5 5 5 5 6 7 7 7 6 6 6 7 7 7 8 8 9 9 9 9 9 10 10 10 11 11 12 12 13 13 13 14 14 14 14 15 15 15 16 16 17 17 17 18 18 19 20 20 20 21 21 21 21 22 22 22 22 23 23 24 24 25 25 26 26 26 26 26 26 26 26 26 26 26 27 27 28 28 29 29 29 29 28
9 9 9 9 9 8 7 7 8 9 9 8 7 6 6 6 6 6 6 6 6 6 6 7 7 8 8 7 7 7 7 7 7 8 8 9 9 9 10 10 10 10 11 11 11 12 12 12 13 13 14 14 15 15 16 16 16 17 17 18 18 19 19 20 20 21 22 22 22 23 23 23 23 23 23 23 23 24 24 25 25 26 26 27 27 27 28 28 28 28 28 28 28 28 28 29 29 30 30 31 31 31 30
9 9 9 9 9 9 8 7 8 9 9 9 9 8 7 7 7 7 7 8 8 8 8 8 8 9 9 8 8 7 8 8 8 9 9 10 10 10 11 11 11 11 12 12 13 13 13 13 13 14 14 15 15 16 17 17 18 18 19 19 20 20 21 21 22 22 23 24 24 24 24 24 24 24 24 25 25 25 25 25 26 26 27 27 28 28 29 29 29 29 29 29 29 29 29 30 31 31 32 32 32 32 31
9 9 9 9 10 9 8 8 8 9 10 9 9 9 8 7 7 8 8 8 9 9 9 9 9 9 9 9 9 9 9 10 10 11 11 11 11 12 12 12 12 13 13 14 14 14 14 14 15 15 15 16 16 17 18 18 19 20 20 21 21 21 22 22 23 23 24 24 24 25 25 24 25 25 25 25 25 25 26 26 26 26 27 27 28 29 29 30 30 30 31 31 31 31 30 31 31 32 32 32 32 32 32
8 8 8 9 10 10 9 8 8 9 10 10 9 9 9 8 8 8 9 9 10 10 10 10 10 10 10 10 10 10 11 11 12 12 13 13 13 14 14 14 14 15 15 16 16 16 16 17 17 17 17 18 18 19 19 20 20 21 21 21 21 22 22 22 23 23 23 24 24 24 24 24 24 24 25 25 25 25 25 25 25 26 26 26 27 27 28 29 30 30 31 32 32 32 31 31 31 31 31 32 32 32 31
8 8 8 9 9 10 10 9 9 9 10 10 10 10 9 9 9 9 9 10 10 10 10 10 10 11 11 11 11 11 12 12 13 14 14 15 15 15 16 16 16 16 17 18 18 18 18 19 19 19 19 20 20 20 20 20 20 20 20 20 21 21 21 21 22 22 23 23 24 24 24 24 24 24 24 24 24 25 25 25 25 25 25 25 26 26 27 27 28 29 30 31 32 32 32 32 32 31 31 31 31 31 31
8 8 8 9 10 10 11 10 10 10 10 11 11 10 10 10 10 10 10 10 10 11 11 11 11 12 12 12 12 12 12 13 13 14 15 15 16 16 16 17 17 17 18 18 19 19 20 20 20 20 21 21 21 21 20 20 19 19 19 19 19 20 20 20 20 21 22 22 23 23 24 24 24 23 23 23 24 25 26 26 27 27 26 26 26 26 26 27 27 28 29 30 31 31 32 32 32 32 32 32 31 31 31
8 8 8 9 9 10 11 11 11 10 11 11 11 11 11 10 10 10 10 10 10 11 11 11 12 12 13 13 13 13 13 14 14 15 15 16 16 16 16 17 17 17 18 18 18 19 19 20 20 20 20 20 20 19 18 18 17 17 18 18 18 19 19 19 20 20 21 22 22 23 24 24 24 23 23 24 25 26 27 28 29 29 29 29 28 27 27 27 28 29 30 30 31 31 31 31 32 32 32 32 32 31 31
8 8 8 9 9 10 11 11 11 11 11 11 12 11 11 10 10 10 10 10 10 10 11 11 12 13 13 13 14 14 14 14 15 16 16 17 17 17 17 17 17 17 18 18 18 18 18 19 19 19 18 18 17 17 16 16 17 17 18 18 18 19 19 19 20 20 21 22 23 23 24 25 25 25 25 26 27 28 28 29 30 30 30 30 30 29 29 29 29 30 30 31 31 31 31 30 30 30 30 30 30 30 30
8 8 8 9 9 9 10 11 11 11 12 12 12 11 11 10 9 10 10 10 10 10 11 11 12 13 14 14 14 14 14 15 15 16 17 17 18 18 18 18 18 18 18 19 19 19 19 18 18 18 18 17 16 16 16 16 17 19 19 20 20 20 20 20 20 21 22 23 24 25 26 27 27 27 28 28 28 28 29 29 29 30 30 30 30 29 30 30 30 30 30 30 31 31 30 29 28 28 28 28 28 28 28
8 8 8 8 8 9 9 10 11 11 11 12 11 11 10 9 9 9 10 10 11 11 11 12 13 13 14 14 14 14 14 14 15 17 18 19 19 19 19 20 20 20 20 20 20 20 20 20 19 18 17 16 15 16 17 18 20 21 21 21 21 21 21 21 22 22 23 24 25 26 27 28 28 29 29 29 29 28 28 28 28 29 29 29 30 30 30 30 30 30 30 30 29 29 28 28 27 27 27 28 28 28 28
8 8 8 8 8 9 9 10 10 11 11 11 11 10 9 9 9 9 10 11 11 12 12 13 13 14 14 15 15 14 14 14 15 17 18 20 21 21 21 21 22 22 22 22 22 22 21 21 19 18 16 16 16 18 19 21 22 22 22 22 22 22 22 22 22 23 24 24 25 26 27 27 28 28 28 28 28 28 27 27 28 28 29 30 30 31 31 30 30 29 29 28 28 28 27 27 28 28 28 29 29 29 28
7 7 8 8 8 9 9 9 10 10 11 11 10 10 9 9 9 10 10 11 12 12 13 14 14 14 15 15 15 15 15 15 16 17 19 20 22 23 24 25 25 25 24 24 23 23 22 21 19 17 16 16 18 20 23 24 24 23 23 22 22 22 22 22 22 23 23 24 24 25 25 26 27 27 27 27 27 27 27 27 28 29 30 30 31 31 31 30 29 28 28 27 27 27 27 28 29 29 30 30 29 29 28
8 7 7 7 8 8 8 9 9 10 10 10 10 10 10 10 10 10 11 11 12 13 14 14 15 15 15 16 16 16 16 16 16 17 18 20 21 23 25 27 29 29 28 27 26 25 23 20 17 15 16 18 21 24 26 26 25 24 23 23 22 22 22 22 23 23 24 24 24 24 25 25 26 27 27 27 28 28 28 29 29 30 31 32 32 31 30 29 28 27 27 27 27 27 28 29 29 30 30 29 29 28 27
8 8 7 7 7 7 8 8 9 10 10 10 10 10 10 10 10 10 11 11 12 12 13 14 15 16 16 16 17 17 16 16 17 17 18 20 21 23 24 26 26 25 27 30 30 27 22 17 15 15 17 21 25 27 27 26 25 24 23 23 23 23 23 24 24 25 25 25 25 24 25 25 26 26 27 28 28 29 29 30 31 31 32 32 32 31 30 29 28 27 27 27 27 28 28 29 29 29 29 28 28 27 27
9 9 8 8 7 7 7 8 9 9 10 10 10 10 10 10 10 10 11 11 12 12 13 13 14 15 16 17 17 18 18 17 17 18 18 20 21 23 24 22 20 21 24 26 27 25 20 15 16 20 25 28 29 29 27 26 24 24 24 24 24 24 24 25 26 26 26 26 25 25 25 25 25 26 27 28 29 29 30 31 31 32 32 32 32 31 30 29 29 28 28 28 28 28 28 28 28 28 28 28 27 27 27
10 10 10 9 8 8 8 8 9 9 10 10 10 10 10 9 10 10 10 11 11 12 13 13 14 15 16 17 17 18 18 18 18 19 20 20 21 22 22 20 20 21 23 21 19 19 19 19 23 28 32 31 29 27 26 25 24 24 24 24 25 25 26 26 27 27 26 26 25 25 25 25 25 26 27 27 28 29 30 30 31 31 31 31 31 31 30 30 29 29 29 28 28 27 27 27 27 27 27 27 27 27 27
11 11 10 10 9 9 9 9 9 9 9 10 10 9 9 9 9 9 9 10 11 11 12 13 13 14 15 16 17 18 18 18 19 19 21 22 22 22 21 22 22 22 20 18 15 15 18 23 29 32 32 27 25 25 25 25 25 25 25 25 26 27 27 28 28 28 27 26 26 26 26 26 26 27 27 27 27 28 29 30 30 30 30 30 30 30 30 30 30 29 29 28 27 26 26 26 25 26 26 26 27 27 27
12 11 11 11 10 10 10 9 9 10 10 10 9 9 8 8 8 8 9 10 10 11 12 13 13 14 15 16 17 18 18 19 20 20 21 22 24 24 23 22 20 17 16 15 16 18 21 26 29 29 26 23 22 23 25 25 25 25 25 26 27 28 29 29 29 28 28 28 27 27 27 27 27 27 27 26 27 27 28 28 29 29 29 29 29 30 30 30 30 29 28 27 26 25 25 24 24 24 25 26 26 27 27
13 12 12 11 11 11 10 10 10 10 10 10 9 9 8 7 7 8 9 10 11 11 12 13 14 14 15 16 16 17 18 19 20 21 21 22 24 24 24 22 21 19 17 16 18 22 26 28 26 22 22 24 24 23 24 25 26 26 27 27 28 29 30 30 30 29 29 29 29 28 28 27 26 26 25 25 25 25 25 25 26 27 27 28 28 29 29 29 28 28 27 26 25 24 24 23 23 24 24 25 26 26 26
13 13 12 12 11 11 11 10 10 10 10 10 10 9 8 8 7 8 9 10 11 13 14 15 15 16 17 17 17 17 18 18 19 20 21 22 23 23 22 21 21 20 21 21 22 24 26 28 25 22 24 27 27 24 23 24 26 27 28 28 29 29 30 30 30 30 30 30 29 28 27 25 24 23 23 22 21 21 21 21 22 23 24 25 25 26 26 26 26 25 25 24 24 23 23 23 22 23 23 24 25 26 25
14 13 12 12 12 11 11 11 11 11 11 11 11 11 10 9 9 9 10 11 13 14 15 16 17 18 19 20 19 18 18 18 19 20 21 21 22 21 21 20 20 20 21 22 23 24 25 25 25 26 26 25 25 27 26 24 24 26 27 27 28 29 30 30 30 31 30 29 28 27 25 24 23 22 21 19 18 17 17 18 19 20 20 21 22 22 22 23 23 23 23 23 23 23 23 23 23 23 23 23 24 25 25
15 14 13 12 12 12 12 12 12 12 12 13 14 13 13 12 11 11 12 13 15 16 16 17 17 19 20 21 19 18 17 18 19 20 19 19 20 20 21 21 21 21 21 22 22 23 24 25 25 25 23 22 23 26 27 27 26 25 25 25 27 29 30 30 30 30 29 27 26 25 24 23 22 20 18 17 16 15 16 16 17 18 18 19 20 20 21 21 22 22 22 22 22 22 23 23 23 24 23 23 23 23 23
16 15 14 13 13 13 13 13 14 14 14 15 15 15 14 13 12 12 13 15 17 18 18 17 17 18 19 20 20 18 18 19 19 19 18 18 18 20 22 22 22 22 22 22 22 23 23 24 24 23 22 22 23 24 26 28 28 27 25 26 27 29 29 29 29 28 26 25 24 23 23 22 21 19 17 15 14 15 15 16 16 17 18 19 20 21 21 22 22 23 23 23 23 23 22 23 23 23 23 23 23 22 22
Wind_Direction
94 86 84 81 78 76 76 80 82 76 64 54 49 50 57 60 60 59 61 65 56 45 45 46 46 49 57 67 80 90 95 96 98 100 106 115 127 141 152 160 163 166 168 170 169 22 4 346 347 24 66 78 77 72 72 78 83 87 88 86 84 80 74 64 52 45 42 42 41 39 33 28 34 41 43 40 37 36 36 30 27 26 29 33 41 49 51 52 54 52 46 45 43 40 38 38 35 32 27 21 16 12 8
106 99 92 82 76 75 78 87 84 73 57 43 35 35 44 56 59 56 50 40 32 30 34 41 46 51 58 66 76 85 89 91 93 95 100 108 120 133 146 155 160 162 163 160 127 45 18 359 2 30 63 76 76 72 76 84 91 95 95 93 92 90 87 82 69 55 51 48 44 39 33 28 28 32 36 36 33 29 27 23 22 24 28 29 30 31 31 31 34 37 35 40 39 35 33 33 32 29 27 21 16 13 9
121 115 102 91 84 81 80 90 87 75 56 39 28 24 32 58 71 74 66 16 12 22 30 36 42 51 59 68 75 82 86 89 90 93 97 103 113 125 139 149 157 161 162 157 95 39 25 14 16 35 60 72 73 72 78 89 97 101 101 101 100 100 101 93 86 71 52 45 41 35 26 21 22 24 24 24 22 20 21 23 24 28 36 38 37 35 32 26 20 15 15 15 18 20 20 21 20 17 15 14 10 8 7
133 127 113 106 101 94 85 85 88 87 77 59 43 42 57 77 92 99 97 19 12 27 31 36 43 52 63 72 78 83 86 88 89 90 93 98 106 117 130 143 153 161 169 170 17 20 26 27 30 42 58 68 70 72 78 90 100 105 107 108 106 105 106 100 88 70 47 31 21 17 16 14 14 16 18 19 21 23 25 26 27 32 41 46 45 43 40 36 29 25 22 18 14 12 12 12 10 6 3 2 1 359 359
135 127 119 116 108 95 83 74 83 104 118 117 102 106 137 130 111 104 102 66 25 23 28 36 45 56 68 77 83 86 88 88 88 88 89 92 98 108 120 135 148 162 176 214 348 5 17 32 42 51 59 67 71 73 77 86 97 105 109 110 107 104 100 92 81 56 33 20 14 12 14 16 21 26 26 28 31 32 32 30 30 33 40 47 51 50 47 44 39 34 31 28 24 21 20 18 14 9 7 7 4 1 1
95 97 105 110 105 97 91 95 113 137 135 131 114 109 123 117 103 91 93 88 38 23 28 37 50 64 76 83 87 89 89 88 88 87 87 88 91 96 106 123 140 161 182 239 341 358 10 30 48 57 61 67 71 75 78 84 92 100 106 108 106 101 95 78 60 46 35 29 25 21 22 25 26 28 32 35 38 38 36 33 33 33 36 41 46 50 53 51 47 43 40 36 31 26 24 24 22 19 17 15 12 11 11
71 77 93 108 111 109 113 143 170 166 143 142 115 89 92 96 97 92 86 66 31 24 29 43 59 74 83 87 89 90 89 88 87 87 87 86 86 88 93 105 123 148 176 246 339 357 7 26 46 57 61 67 71 75 79 83 91 97 101 103 101 98 84 58 45 44 45 39 32 28 28 34 38 38 37 37 38 38 38 36 35 35 36 38 39 40 42 45 47 48 47 43 39 34 27 27 24 21 23 20 17 16 17
68 73 88 113 122 128 140 162 176 168 144 144 133 108 100 104 111 95 57 25 18 25 39 57 72 82 87 90 90 90 89 88 87 87 87 86 86 86 86 91 98 107 112 12 355 359 8 26 43 54 60 64 69 73 77 82 89 94 94 87 78 60 30 22 38 52 56 48 36 30 31 37 41 41 41 38 36 35 35 35 34 35 36 38 38 36 34 34 34 36 41 40 38 34 27 26 22 19 19 20 18 16 17
71 73 84 109 130 143 155 170 176 169 150 144 147 149 145 126 74 35 19 17 29 45 60 73 82 88 90 91 90 89 89 88 87 86 86 86 86 86 85 83 82 78 64 35 19 12 13 28 41 51 58 61 64 66 69 76 84 88 82 66 48 34 28 35 49 61 66 51 40 37 38 37 39 40 39 37 34 32 31 30 30 32 35 39 39 36 33 30 28 28 28 28 26 23 21 20 17 13 11 12 12 12 13
74 75 81 96 116 130 143 168 178 175 165 154 147 143 132 102 61 45 50 56 63 70 77 84 89 91 91 89 88 88 88 88 87 86 85 84 84 83 81 78 73 64 51 38 30 26 22 28 40 50 56 60 60 59 59 61 67 68 62 53 47 44 45 49 57 66 70 56 44 37 33 33 33 34 36 36 34 32 30 27 27 28 33 37 39 37 34 30 27 25 24 23 20 17 15 15 15 12 8 7 6 6 7
74 75 78 85 94 105 121 150 166 172 173 171 149 119 105 99 92 85 83 83 82 85 87 89 91 90 88 86 85 85 86 87 86 85 84 82 80 78 75 70 64 55 45 35 34 32 30 30 37 47 53 56 56 54 50 44 44 46 49 52 52 51 50 51 55 56 53 41 29 24 24 27 30 31 33 34 33 31 29 26 25 27 32 37 39 37 33 30 26 24 23 22 20 18 16 17 17 15 11 7 4 3 4
73 75 76 81 89 99 115 134 148 157 164 167 152 120 107 107 105 100 95 92 92 91 91 89 88 86 84 82 80 80 81 83 85 85 83 81 79 74 70 64 57 47 35 28 29 32 34 28 35 44 51 54 54 51 45 38 33 37 46 54 56 53 46 45 42 40 34 30 26 23 23 27 29 30 32 33 32 29 27 26 26 29 32 37 39 37 33 29 25 23 21 22 23 22 22 22 21 19 14 10 6 5 6
73 74 76 81 91 101 111 121 129 138 145 149 142 126 115 111 107 103 99 97 96 94 91 87 84 82 79 77 75 74 74 76 79 82 82 81 77 73 67 60 50 38 23 16 17 22 28 24 28 41 50 53 54 51 46 39 33 38 47 53 52 45 32 26 27 29 29 29 28 26 25 26 30 32 33 31 30 28 26 27 28 30 33 37 38 36 32 28 24 21 20 21 23 25 27 27 26 22 18 13 10 9 9
74 76 79 85 91 99 106 111 116 122 127 129 127 121 116 112 109 105 102 99 96 92 88 83 80 77 75 73 71 70 69 69 71 73 76 78 76 73 67 60 47 31 14 4 4 10 14 8 18 32 48 55 57 55 51 45 42 46 53 54 48 38 23 20 21 26 30 29 28 25 24 24 27 30 31 31 29 28 26 26 27 29 31 34 36 35 31 27 24 21 19 19 20 22 25 28 28 26 21 17 13 11 11
77 79 82 87 93 98 102 106 109 112 114 116 117 117 116 113 110 106 103 99 95 90 85 81 78 76 74 71 70 68 68 67 66 66 69 70 72 71 68 60 48 27 9 1 5 12 11 2 2 21 45 55 59 59 55 48 46 52 61 58 51 38 21 14 16 23 30 30 27 23 22 21 22 24 28 29 28 26 26 26 27 27 28 30 32 32 30 26 24 21 19 17 17 18 20 22 25 25 23 19 16 13 11
79 81 84 88 92 96 99 101 104 106 108 111 114 115 116 114 110 107 103 99 95 89 84 81 78 77 76 73 71 70 70 68 64 61 61 63 64 66 66 61 47 27 9 7 15 23 20 4 354 9 39 52 57 57 56 50 46 51 62 64 57 43 23 10 10 18 26 30 27 23 21 20 20 21 24 27 27 24 24 25 25 26 26 26 27 27 26 23 21 20 18 16 14 13 14 15 17 19 20 18 16 13 10
80 82 84 88 91 93 96 98 100 103 107 111 114 115 114 112 109 106 103 99 95 90 87 85 85 86 85 81 77 73 72 69 65 61 58 56 57 57 59 56 46 27 14 14 25 33 32 19 4 10 38 51 54 54 54 50 45 45 55 63 65 54 25 9 8 16 22 26 27 24 21 20 20 21 23 25 25 24 23 23 24 24 25 25 23 22 20 18 17 16 16 14 12 11 10 10 9 10 12 13 13 11 9
82 83 84 87 90 93 95 97 99 102 106 111 114 114 113 111 107 104 101 97 94 92 92 94 98 103 104 97 89 80 73 70 66 62 58 54 51 50 48 47 41 29 20 24 34 41 44 38 28 29 44 49 51 50 51 49 45 41 44 53 60 61 40 17 13 17 20 24 26 25 22 20 20 21 22 23 24 23 22 22 22 22 22 22 21 19 16 14 13 12 12 11 10 9 8 6 5 4 5 6 7 6 5
88 88 87 88 90 93 97 99 101 103 106 110 113 114 113 111 107 103 99 96 94 94 97 101 105 110 110 104 95 85 76 71 68 64 59 55 50 46 41 37 34 31 28 32 40 48 53 51 45 41 46 49 49 48 47 45 43 40 39 41 43 42 39 26 20 19 21 24 26 27 25 21 19 19 20 21 21 22 22 22 21 20 19 19 18 16 14 11 9 8 8 8 7 6 5 4 2 1 0 0 0 0 359
99 99 95 94 95 96 100 102 105 108 109 110 112 113 114 112 109 105 101 98 97 99 102 103 104 104 101 94 87 81 75 71 68 65 61 58 52 47 40 34 31 31 33 38 45 52 58 57 51 43 43 46 46 46 45 43 41 39 36 33 31 30 28 25 23 22 24 25 27 27 25 22 19 17 17 17 17 18 18 18 18 17 16 15 14 13 11 9 6 5 3 3 3 2 2 1 359 358 358 357 356 355 353
121 121 109 105 103 102 102 104 108 112 116 115 114 114 114 113 110 108 104 104 105 106 105 101 96 91 84 78 73 70 68 66 63 61 59 57 54 50 42 35 32 33 37 42 49 55 60 59 53 44 39 40 41 42 42 41 39 37 35 32 29 26 23 21 20 22 24 26 26 25 23 21 18 15 14 13 12 12 12 13 13 12 11 10 9 8 7 7 4 2 0 359 358 357 357 356 355 354 354 353 352 350 348
150 153 140 127 118 112 108 104 106 114 122 123 121 119 117 114 111 110 109 111 112 110 104 95 86 79 73 68 64 60 58 56 54 53 51 50 51 49 44 38 33 35 41 47 53 57 61 59 52 43 37 34 36 36 38 38 38 36 35 32 30 27 23 21 19 19 21 22 22 21 19 17 15 12 11 9 7 6 5 6 6 6 5 4 3 2 1 1 0 359 357 355 353 352 351 351 350 349 348 348 346 345 344
174 181 176 162 141 127 117 107 103 113 128 131 127 123 120 117 115 114 113 113 110 104 95 85 76 71 67 63 59 54 51 49 47 45 42 43 44 46 43 39 36 38 43 50 56 59 62 59 52 43 36 31 30 31 34 35 36 35 33 30 28 27 24 21 19 17 17 16 16 14 12 11 8 7 5 3 1 360 359 359 359 359 358 357 356 355 354 354 354 353 352 350 348 347 346 345 344 343 343 342 341 340 338
182 189 188 183 166 144 127 115 107 118 136 137 128 119 116 117 117 116 114 109 103 93 82 73 66 65 63 60 58 53 47 43 41 39 36 36 38 41 43 40 38 39 45 52 57 61 62 59 52 43 35 29 27 28 30 32 33 31 29 26 24 22 21 19 17 15 12 11 9 7 6 4 2 1 359 357 355 354 353 352 352 351 351 350 348 347 346 346 346 345 345 344 342 341 340 339 337 337 336 336 335 334 334
181 187 187 187 172 155 136 120 108 124 141 142 128 112 104 108 112 112 108 101 92 83 72 63 58 56 57 58 55 51 45 39 36 35 32 31 31 35 38 40 39 39 44 50 57 61 63 60 54 44 35 30 27 27 28 29 29 28 24 22 19 18 15 13 11 9 7 5 3 1 359 358 356 354 352 351 349 348 347 346 345 344 344 343 342 341 340 339 338 338 337 337 336 335 334 333 332 331 330 330 330 330 329
183 173 173 188 182 166 148 112 28 47 134 140 128 108 96 97 103 106 101 94 86 77 66 56 48 45 47 48 50 46 39 32 30 30 28 24 22 24 28 33 36 38 40 46 53 59 62 62 57 47 37 29 26 25 25 25 25 23 20 17 14 12 10 8 6 3 1 359 356 355 353 352 350 348 347 345 343 342 341 340 339 339 338 337 336 335 334 334 333 332 331 331 330 329 328 328 327 326 326 325 325 325 325
199 177 158 295 281 274 287 321 324 321 320 128 116 104 96 93 98 101 98 91 85 77 68 54 36 28 28 35 37 37 29 21 17 20 21 17 13 11 12 16 23 29 35 39 46 54 59 63 61 53 41 30 25 23 23 22 20 17 15 11 8 6 4 2 1 358 355 353 351 349 348 346 344 343 341 340 338 338 336 335 334 334 333 332 331 331 330 329 328 328 327 326 326 325 324 324 323 322 322 322 321 322 321
215 208 241 293 303 306 311 314 310 304 300 316 79 92 95 93 98 103 100 95 89 85 75 55 25 12 13 17 20 20 15 4 358 359 7 9 5 359 357 357 1 10 19 24 32 42 52 61 64 60 49 34 21 16 17 16 14 10 7 4 1 359 357 355 353 352 349 347 345 343 342 340 339 338 336 335 334 333 332 331 330 330 329 328 327 327 326 325 325 324 323 323 322 321 321 320 320 319 319 318 318 318 318
223 223 235 268 295 305 307 300 286 283 285 298 325 46 87 92 100 106 105 99 94 91 77 40 7 359 359 2 3 3 357 347 341 340 346 351 351 347 343 341 342 347 354 1 9 19 33 48 59 65 61 41 17 4 1 1 359 358 356 353 351 350 348 346 345 344 342 341 339 337 336 335 334 333 332 331 330 329 328 327 327 326 325 325 324 324 323 323 322 321 320 320 319 319 318 318 317 317 316 316 315 315 315
227 230 234 256 282 295 293 245 208 231 262 280 287 304 50 83 105 110 105 101 97 88 60 9 349 344 344 346 347 344 338 331 327 326 328 332 334 333 330 326 325 327 332 336 340 343 349 359 17 35 46 27 352 337 337 338 341 342 341 341 340 339 338 338 337 336 335 335 333 332 331 330 329 328 327 327 326 325 325 324 323 323 322 322 321 321 321 321 320 319 318 318 317 316 316 315 315 314 314 314 313 313 312
226 234 241 252 266 276 272 201 177 188 228 252 262 266 275 217 126 119 109 103 97 92 60 350 328 323 323 324 323 322 318 316 314 315 316 318 319 318 317 315 312 310 311 312 314 315 315 315 313 313 310 307 307 308 314 319 323 326 328 328 329 329 329 329 329 329 329 328 327 327 326 325 324 324 323 323 322 322 321 320 320 320 319 319 319 319 319 319 318 318 317 316 316 315 314 314 313 313 312 312 311 310 310
223 232 241 248 256 261 255 205 177 177 206 235 249 250 240 196 126 116 120 108 103 100 59 313 307 307 308 308 309 308 309 308 309 310 311 311 310 310 309 308 305 302 300 298 297 299 298 298 298 298 299 298 300 301 303 307 310 314 317 318 320 321 322 322 323 323 323 323 322 322 321 321 320 320 319 319 319 318 318 317 317 316 316 316 316 316 316 317 316 316 316 315 314 314 313 312 311 311 310 310 309 308 307
223 227 236 243 248 251 245 221 196 183 194 231 250 254 249 67 33 338 308 293 293 293 294 292 295 297 301 304 304 306 306 307 309 310 310 309 308 307 305 304 302 300 297 295 294 293 293 293 293 294 295 296 298 299 301 301 303 305 308 310 312 313 315 316 317 317 318 318 318 318 317 317 316 316 316 315 315 315 314 314 313 313 313 313 314 314 314 314 314 314 314 314 313 312 311 311 310 309 308 308 307 306 305
225 227 233 238 242 241 235 231 231 236 241 251 259 272 303 5 357 330 304 295 293 297 297 298 296 299 301 302 305 305 307 309 311 311 310 308 307 306 305 303 301 299 297 296 295 294 294 294 294 295 295 296 297 298 298 300 300 301 303 304 306 308 309 310 312 313 313 314 314 314 313 313 312 312 312 312 312 311 311 310 310 310 310 310 310 311 311 311 311 311 311 311 311 310 309 309 308 307 306 305 304 303 302
229 230 233 236 236 233 229 234 261 291 286 274 272 284 309 337 344 324 305 295 294 297 300 303 304 305 304 303 304 306 309 311 312 311 309 307 306 305 303 302 300 299 298 297 296 295 295 295 295 295 295 296 296 297 298 298 298 299 301 302 303 303 304 306 307 308 309 310 310 310 309 309 309 308 308 308 308 308 308 307 307 307 307 307 307 307 307 307 307 307 308 308 307 307 307 306 305 305 303 303 302 301 300
230 231 233 234 231 227 223 231 262 279 279 278 281 290 307 324 327 317 303 294 291 293 297 304 306 305 303 300 300 303 305 308 308 308 306 305 304 302 301 300 299 299 299 297 296 296 295 295 294 294 295 295 296 296 297 297 297 298 299 300 301 301 302 303 304 305 305 305 306 306 306 305 305 305 305 305 305 305 305 305 305 304 304 304 303 303 303 303 303 303 304 304 304 304 304 303 303 302 301 300 299 299 298
227 229 231 230 226 222 219 227 245 257 265 272 280 293 310 318 317 312 303 295 292 291 294 299 300 298 296 295 296 298 300 302 304 304 303 303 302 301 300 299 298 298 298 297 296 296 296 295 295 295 295 295 295 296 296 296 296 298 299 299 300 300 301 302 302 303 302 302 302 302 302 302 302 302 302 302 302 303 303 303 303 302 302 301 301 301 301 300 300 300 301 301 301 301 302 302 301 301 300 300 299 298 298
224 225 226 224 221 217 215 224 234 243 252 262 274 290 305 311 313 310 304 299 296 295 294 294 292 291 292 292 293 295 297 300 302 303 303 303 304 303 302 300 299 298 297 296 296 296 296 296 296 296 296 296 296 295 295 296 297 298 299 300 300 301 301 302 302 302 301 301 300 300 299 299 299 299 299 299 300 300 301 301 301 301 301 300 300 299 299 299 299 299 299 299 300 300 301 302 303 303 303 303 302 302 301
223 222 221 220 217 214 213 223 231 237 245 257 269 284 297 304 309 311 308 305 302 298 296 294 291 289 290 290 292 293 295 297 299 300 301 301 302 302 302 301 300 300 298 297 296 295 295 295 295 296 296 297 296 296 296 298 299 300 301 301 302 302 303 302 302 302 301 301 300 300 299 298 298 297 297 297 297 298 298 299 299 299 299 299 299 298 298 298 298 298 298 299 299 300 301 303 305 305 306 306 306 305 305
224 221 218 218 215 214 214 223 230 235 242 252 265 278 290 299 306 311 311 309 305 302 299 296 293 291 290 291 291 293 294 296 297 298 298 298 298 298 299 300 300 300 299 297 296 295 295 294 294 294 295 296 296 297 298 300 302 302 303 303 304 304 303 303 302 302 301 301 301 300 300 299 299 298 298 297 297 297 297 297 297 298 298 298 298 298 298 298 298 298 298 298 299 299 301 302 304 305 305 304 304 304 304
226 222 219 217 216 215 215 223 230 235 240 250 262 274 285 295 302 308 311 310 307 304 300 297 294 293 292 293 294 296 298 300 300 299 299 298 297 297 297 298 298 298 298 296 296 295 295 294 294 294 295 295 296 298 300 302 304 305 305 305 305 304 303 302 302 302 302 302 301 301 301 301 300 300 299 298 298 298 297 297 297 297 297 297 297 297 298 298 298 298 298 298 298 298 299 300 301 302 302 302 302 301 300
229 225 222 219 217 215 214 220 228 235 241 251 261 272 281 290 299 305 309 309 308 306 303 299 297 295 295 296 298 299 302 303 303 303 302 302 301 301 300 300 300 300 299 299 298 297 297 297 297 297 298 298 299 301 303 304 305 306 306 305 304 303 302 302 302 302 302 302 302 302 302 301 301 300 300 300 300 300 299 298 298 297 297 297 298 298 299 300 300 300 300 299 298 298 298 299 299 300 300 300 300 299 298
233 229 225 222 218 215 211 216 225 236 244 253 262 270 279 287 296 303 307 309 310 310 308 305 302 300 299 300 301 302 303 304 305 304 304 304 304 303 304 304 304 304 303 303 303 303 303 303 303 303 303 303 304 305 306 307 307 307 306 305 303 302 301 301 301 302 302 302 303 303 303 302 301 301 301 302 302 302 302 302 301 301 300 300 300 300 301 302 303 303 303 302 301 300 299 299 299 298 298 298 297 296 295
233 231 227 225 220 215 211 213 221 234 245 254 262 269 277 286 294 301 307 311 314 315 314 311 309 307 306 305 305 305 306 306 305 305 304 304 304 304 304 305 306 306 306 307 307 307 307 307 307 307 307 308 308 309 310 310 310 309 307 306 304 303 302 303 303 303 303 304 304 304 303 303 302 302 302 302 303 302 302 302 302 302 302 303 303 303 304 305 305 305 305 305 304 303 302 301 300 299 298 297 296 294 293
232 229 227 226 223 218 215 214 220 231 243 253 261 269 277 285 293 301 309 315 318 319 318 316 315 314 312 311 310 310 309 309 308 306 305 304 304 304 304 305 306 307 307 308 308 308 308 308 308 309 309 310 311 312 313 313 313 313 312 311 309 308 307 306 306 306 305 305 305 305 304 303 303 303 303 302 301 300 298 298 297 298 300 301 302 304 305 305 304 304 303 303 304 305 305 304 303 301 300 299 298 296 295
231 229 227 227 225 223 220 219 224 231 241 251 260 267 276 284 294 302 310 315 319 320 319 318 317 317 317 316 315 314 314 312 311 309 307 306 306 305 306 306 307 308 308 308 308 308 308 308 309 310 311 312 313 315 317 318 319 319 319 318 315 313 312 310 309 308 307 306 306 305 304 304 304 304 303 302 301 299 298 296 295 295 296 297 299 301 302 303 303 302 301 301 301 302 303 304 304 303 303 302 301 299 298
231 231 230 229 229 228 227 227 229 234 242 250 258 266 274 284 294 302 308 313 315 317 317 317 317 318 318 318 318 318 317 316 314 312 311 309 309 309 310 309 309 310 311 310 310 309 309 310 311 312 313 315 316 319 321 322 323 323 322 320 317 315 313 311 309 308 307 306 305 304 303 303 303 303 303 302 301 300 299 298 296 295 295 297 298 299 300 301 301 302 301 301 300 300 302 303 304 305 305 306 305 303 300
231 232 232 232 232 233 233 233 235 239 245 251 258 266 275 284 293 300 305 308 311 313 315 315 316 317 318 319 319 320 320 319 318 316 315 314 313 313 314 314 313 312 313 313 313 313 314 314 315 316 316 318 321 323 324 324 323 322 321 319 316 314 312 310 308 306 305 304 303 302 301 301 301 301 301 301 301 300 299 299 298 297 297 297 298 299 300 301 302 302 302 302 302 302 303 304 305 306 307 308 307 306 303
232 233 233 233 234 235 237 239 241 244 249 255 261 269 277 284 290 295 300 304 308 311 314 315 316 318 319 320 321 322 323 323 321 320 319 318 318 317 316 316 316 316 317 317 318 319 320 320 320 321 321 322 324 324 323 322 321 319 318 316 314 312 311 309 308 307 306 305 303 301 300 299 298 298 298 298 298 298 298 297 297 297 297 297 298 299 300 301 301 302 302 303 304 304 305 305 306 306 307 307 307 306 305
234 235 236 236 237 239 241 243 245 249 254 260 266 272 277 281 285 289 294 299 304 308 311 314 317 319 320 320 322 324 327 326 325 323 321 321 321 322 321 320 319 319 321 322 323 325 326 327 327 327 325 324 323 322 320 318 317 316 316 315 314 313 312 311 310 310 309 308 305 302 299 298 296 296 296 296 296 296 296 295 295 295 295 297 297 297 298 299 299 300 301 302 303 303 304 304 304 304 304 304 305 305 305
239 240 241 241 243 244 246 247 250 253 259 264 269 273 277 280 284 287 291 295 300 305 308 312 317 320 320 320 321 324 327 327 326 324 322 322 322 323 323 323 323 324 325 324 326 328 331 333 331 328 324 321 319 318 317 316 315 315 315 315 314 314 314 313 313 313 313 312 309 305 302 299 298 297 296 296 296 295 295 295 295 294 294 295 295 295 296 296 297 297 298 298 299 300 301 302 302 303 303 303 304 305 306
244 246 248 249 251 252 251 251 252 256 260 265 269 274 279 282 285 288 291 294 298 303 308 311 314 317 320 319 320 323 324 325 324 322 321 321 321 322 323 324 325 325 325 325 326 329 334 335 329 320 315 315 315 316 316 316 316 316 316 315 315 315 315 315 315 315 315 314 312 308 305 302 301 300 299 298 298 297 296 296 295 295 295 295 295 295 295 295 294 294 294 294 295 297 299 300 302 303 304 305 306 306 307
249 251 253 256 258 259 257 255 255 258 261 265 271 276 282 286 289 292 294 296 299 304 308 311 312 314 315 317 319 320 322 321 321 320 319 319 319 320 321 322 321 319 320 322 324 326 329 326 316 310 311 313 316 317 318 319 318 317 317 316 316 316 316 315 315 316 316 315 313 311 309 307 305 303 302 301 300 299 299 298 298 298 298 298 297 296 295 294 293 292 291 291 292 295 297 299 302 303 305 306 307 307 307
251 254 256 260 263 263 262 260 260 261 264 268 274 280 285 290 294 296 297 298 301 304 307 309 309 310 312 313 315 316 317 318 318 319 319 318 317 315 313 312 312 312 313 316 318 319 319 316 311 310 314 317 320 321 320 320 319 318 317 317 317 316 316 316 316 316 316 316 315 313 312 311 309 308 306 304 303 302 301 301 301 300 300 300 298 297 295 294 293 292 291 291 292 294 296 298 300 302 304 306 307 307 307
252 255 258 261 264 265 265 264 263 264 267 271 277 282 288 293 297 299 299 298 300 302 304 305 305 306 307 309 311 311 311 314 316 318 318 317 314 309 304 305 307 310 312 314 313 311 312 311 311 313 317 320 321 320 318 317 316 316 316 316 316 316 316 316 317 317 318 317 317 316 315 314 313 312 309 307 305 304 303 303 302 302 301 300 299 297 296 295 294 293 293 293 293 294 295 297 299 301 303 304 306 306 307
253 255 258 261 262 264 264 264 264 265 269 273 278 283 289 294 297 298 297 297 297 299 300 300 300 300 301 303 305 306 307 309 313 315 315 313 310 307 304 303 304 306 308 308 307 307 308 310 314 316 318 317 316 315 313 314 314 314 315 316 316 315 316 317 318 319 319 319 319 319 318 318 317 315 313 311 309 307 305 304 303 302 301 299 298 297 297 296 296 295 295 295 294 294 294 295 297 300 302 304 305 306 307
253 255 257 259 261 262 262 262 263 265 269 273 278 282 286 290 292 294 294 295 296 295 294 293 293 293 293 294 296 297 300 303 308 312 313 312 310 307 306 306 306 305 302 302 305 307 310 314 316 316 313 312 311 310 311 312 312 313 314 315 315 315 316 318 319 320 320 321 321 322 322 322 321 320 318 316 314 311 308 305 303 300 299 298 297 297 297 298 298 298 297 296 295 294 294 295 298 301 304 305 306 307 306
252 254 256 258 260 260 260 260 262 265 268 272 275 277 278 281 285 288 291 292 291 290 289 288 288 289 289 288 288 290 294 300 306 310 313 315 315 314 313 314 314 314 311 308 307 309 311 314 313 310 308 310 310 309 309 310 311 312 314 314 314 315 317 318 320 321 322 323 325 326 327 327 327 327 325 323 320 316 312 308 304 301 299 298 298 298 298 299 300 300 300 299 297 296 296 297 299 302 304 306 306 305 303
251 253 255 256 256 257 258 259 261 264 267 269 269 270 271 273 278 283 286 286 284 282 283 284 286 288 289 288 287 288 295 304 308 310 312 315 317 319 320 320 319 317 313 310 308 307 308 309 309 308 308 309 310 309 309 310 311 312 313 313 313 315 317 318 320 321 323 326 328 330 331 332 333 333 332 330 326 321 315 310 307 305 304 304 303 303 302 302 301 301 301 300 299 298 297 297 298 299 300 302 302 301 299
249 251 252 252 252 253 255 256 258 261 264 265 265 265 266 269 272 275 278 278 276 274 275 278 285 292 295 295 294 297 303 309 311 310 310 311 314 318 320 319 317 314 310 307 305 304 304 303 304 306 309 308 308 308 309 310 311 313 313 312 312 314 316 318 320 323 326 330 332 334 334 335 336 336 335 333 328 322 315 311 311 312 312 312 311 309 307 306 303 302 300 300 299 298 298 297 296 295 296 296 298 300 301
247 249 249 249 250 251 252 255 257 259 260 263 265 266 267 267 268 270 271 272 271 270 271 276 286 296 302 305 308 312 313 311 308 305 305 306 311 316 318 318 315 312 308 305 303 302 301 300 302 304 307 308 308 308 308 309 312 313 313 312 312 314 317 319 322 326 330 333 334 335 336 337 338 337 336 332 326 318 313 311 313 315 316 316 315 313 311 309 306 304 302 301 299 298 296 294 294 293 293 293 295 298 301